Raleigh-Durham Airport, NC

2:03 PM EST on December 16, 2017 (GMT -0500)
Raleigh-Durham International

Weather History for KRDU - April, 2013

Change the Weather History Date:

Wednesday, April 17, 2013

  Actual Average Record
Temperature  
Mean Temperature 69 °F 61 °F  
Max Temperature 80 °F 73 °F 93 °F (1896)
Min Temperature 58 °F 48 °F 29 °F (1962)
Degree Days  
Heating Degree Days 0 6  
Month to date heating degree days 101 130  
Since 1 July heating degree days 3162 3126  
Cooling Degree Days 4 2  
Month to date cooling degree days 33 21  
Year to date cooling degree days 35 33  
Growing Degree Days 20 (Base 50)    
Moisture  
Dew Point 61 °F    
Average Humidity 72    
Maximum Humidity 93    
Minimum Humidity 51    
Precipitation  
Precipitation 0.00 in 0.10 in 2.55 in (1910)
Month to date precipitation 1.83 1.72  
Year to date precipitation 11.96 12.56  
Snow  
Snow 0.00 in 0.00 in T in (2001)
Month to date snowfall T 0.1  
Since 1 July snowfall 1.7 6.1  
Snow Depth 0.00 in    
Sea Level Pressure  
Sea Level Pressure 30.18 in    
Wind  
Wind Speed 8 mph (SSW)    
Max Wind Speed 15 mph    
Max Gust Speed 20 mph    
Visibility 10 miles    
Events      
T = Trace of Precipitation, MM = Missing Value Source: NWS Daily Summary

Daily Weather History Graph

Daily Weather History Graph

Search for Another Location

Airport or City:

Trip Planner

Search our weather history database for the weather conditions in past years. The results will help you decide how hot, cold, wet, or windy it might be!

Date:

Astronomy

Apr. 17, 2013 Rise Set
Actual Time 6:39 AM EDT 7:50 PM EDT
Civil Twilight 6:12 AM EDT 8:17 PM EDT
Nautical Twilight 5:41 AM EDT 8:48 PM EDT
Astronomical Twilight 5:08 AM EDT 9:21 PM EDT
Moon 11:55 AM EDT (4/17) 1:23 AM EDT (4/17)
Length of Visible Light 14h 04m
Length of Day
13h 11m
Waxing Crescent, 42% of the Moon is Illuminated
Apr 17
Waxing Crescent
Apr 18
First Quarter
Apr 25
Full
May 2
Last Quarter
May 9
New

Hourly Weather History & Observations

Time (EDT) Temp. Heat Index Dew Point Humidity Pressure Visibility Wind Dir Wind Speed Gust Speed Precip Events Conditions
12:51 AM 64.0 °F - 57.9 °F 80% 30.22 in 10.0 mi South 6.9 mph - N/A   Partly Cloudy
1:51 AM 63.0 °F - 57.9 °F 84% 30.23 in 10.0 mi SSW 6.9 mph - N/A   Partly Cloudy
2:51 AM 62.1 °F - 57.9 °F 86% 30.22 in 10.0 mi SSW 6.9 mph - N/A   Partly Cloudy
3:51 AM 62.1 °F - 57.9 °F 86% 30.20 in 10.0 mi South 5.8 mph - N/A   Partly Cloudy
4:51 AM 61.0 °F - 57.9 °F 90% 30.20 in 10.0 mi SSW 3.5 mph - N/A   Partly Cloudy
5:51 AM 59.0 °F - 57.0 °F 93% 30.21 in 8.0 mi SSW 6.9 mph - N/A   Scattered Clouds
6:51 AM 59.0 °F - 57.0 °F 93% 30.23 in 7.0 mi SSW 4.6 mph - N/A   Mostly Cloudy
7:51 AM 62.1 °F - 60.1 °F 93% 30.24 in 8.0 mi SW 8.1 mph - N/A   Mostly Cloudy
8:51 AM 63.0 °F - 60.1 °F 90% 30.22 in 10.0 mi WSW 11.5 mph - N/A   Scattered Clouds
9:51 AM 69.1 °F - 61.0 °F 75% 30.20 in 10.0 mi SW 8.1 mph - N/A   Mostly Cloudy
10:51 AM 73.0 °F - 62.1 °F 68% 30.20 in 10.0 mi SW 12.7 mph - N/A   Mostly Cloudy
11:51 AM 75.9 °F - 63.0 °F 64% 30.20 in 10.0 mi SW 11.5 mph - N/A   Mostly Cloudy
12:51 PM 78.1 °F - 62.1 °F 58% 30.18 in 10.0 mi WSW 9.2 mph 16.1 mph N/A   Mostly Cloudy
1:51 PM 79.0 °F - 64.0 °F 60% 30.17 in 10.0 mi SW 6.9 mph - N/A   Mostly Cloudy
2:51 PM 78.1 °F - 63.0 °F 60% 30.15 in 10.0 mi WSW 6.9 mph - N/A   Mostly Cloudy
3:51 PM 79.0 °F - 63.0 °F 58% 30.13 in 10.0 mi WSW 9.2 mph - N/A   Mostly Cloudy
4:51 PM 77.0 °F - 62.1 °F 60% 30.12 in 10.0 mi WSW 5.8 mph - N/A   Mostly Cloudy
5:51 PM 80.1 °F 81.1 °F 61.0 °F 52% 30.11 in 10.0 mi South 8.1 mph - N/A   Mostly Cloudy
6:51 PM 75.9 °F - 60.1 °F 58% 30.12 in 10.0 mi SSW 8.1 mph - N/A   Mostly Cloudy
7:51 PM 75.0 °F - 61.0 °F 62% 30.12 in 10.0 mi SSE 3.5 mph - N/A   Mostly Cloudy
8:51 PM 73.9 °F - 62.1 °F 66% 30.14 in 10.0 mi South 4.6 mph - N/A   Mostly Cloudy
9:51 PM 73.0 °F - 60.1 °F 64% 30.14 in 10.0 mi SE 5.8 mph - N/A   Mostly Cloudy
10:51 PM 72.0 °F - 60.1 °F 66% 30.15 in 10.0 mi South 11.5 mph 19.6 mph N/A   Mostly Cloudy
11:51 PM 72.0 °F - 60.1 °F 66% 30.16 in 10.0 mi SSW 10.4 mph 18.4 mph N/A   Mostly Cloudy